Location: Casco Millpond
(44.5581°N, 87.6111°W)
Time: 16:25:32
(UTC+00:00)

Daily predictions for brighter satellites

Satellite Brightness Start Highest point End
(mag) Time Altitude Azimuth Time Altitude Azimuth Time Altitude Azimuth
Cosmos 1862 Rocket 3.6 12:00:20 10° N 12:04:41 80° E 12:08:59 10° SSE
SeaSat 1 3.0 12:00:12 10° NE 12:05:03 61° ESE 12:09:53 10° SSW
SL-23 DEB 3.9 12:04:39 26° WNW 12:05:53 38° NNW 12:09:01 10° NE
Cosmos 1953 3.9 12:03:59 10° SSE 12:07:18 34° E 12:10:40 10° NNE
CZ-4C R/B 4.5 12:03:05 10° NNW 12:08:03 22° NNE 12:13:55 10° ENE
Cosmos 2154 Rocket 4.2 12:02:33 10° SSW 12:08:37 48° WNW 12:14:42 10° N
Gblst 52 Del rocket 4.1 12:04:58 19° WNW 12:09:02 86° NNE 12:14:42 10° ESE
CORIOLIS 4.4 12:08:52 10° NNE 12:14:20 76° ESE 12:19:45 10° S
CZ-2D R/B 4.0 12:12:02 10° NNE 12:15:01 43° E 12:17:59 10° S
NOSS 8 (H) 4.2 12:13:12 19° NW 12:15:15 70° SW 12:18:50 10° SSE
Landsat 7 4.1 12:10:58 10° NNE 12:15:38 72° ESE 12:20:16 10° S
COSMO-SKYMED 1 3.6 12:14:14 10° SSW 12:17:32 23° W 12:20:09 13° NW
MOS 1 Rocket 3.4 12:14:20 10° NNE 12:18:51 73° ESE 12:23:08 10° S
ATLAS CENTAUR R/B 1.2 12:18:26 19° WNW 12:20:06 36° WSW 12:22:50 10° S
Cosmos 1707 Rocket 3.4 12:16:10 10° NNW 12:20:29 73° W 12:24:48 10° S
Meteor 1-22 Rocket 4.5 12:14:53 10° S 12:20:58 84° E 12:26:57 10° NNE
USA 32 4.2 12:17:45 10° SSW 12:22:48 47° W 12:27:51 10° N
SMAP 3.0 12:18:09 10° NNE 12:22:51 88° W 12:27:30 10° SSW
Cosmos 2084 Rocket 4.1 12:18:45 10° NNW 12:22:52 52° NE 12:26:59 10° SE
IGS 5A 3.8 12:20:10 10° N 12:23:50 36° WNW 12:27:29 10° SW
CENTAUR R/B 2.7 12:19:13 10° SSW 12:24:30 71° ESE 12:31:14 10° NE
BREEZE-M DEB (TANK) 2.8 12:24:32 16° NW 12:26:08 47° NNE 12:28:43 10° E
Cosmos 1633 Rocket 2.9 12:22:19 10° SSW 12:26:39 77° W 12:30:59 10° N
Cosmos 1743 Rocket 4.4 12:24:19 10° SW 12:28:10 28° WNW 12:32:00 10° NNW
Meteor 2-19 Rocket 4.4 12:22:15 10° NNW 12:28:18 74° W 12:34:18 10° S
Cosmos 2341 Rocket 4.1 12:24:23 10° S 12:30:47 90° E 12:37:13 10° N
Cosmos 1484 Rocket 3.3 12:28:45 10° N 12:31:42 28° WNW 12:34:39 10° SW
GEOS 3 Rocket 4.1 12:28:32 10° SSE 12:33:26 43° WSW 12:38:28 10° NW
Cosmos 304 Rocket 4.4 12:30:34 10° S 12:35:15 60° ESE 12:39:57 10° NNE
Cosmos 1758 4.4 12:33:13 10° WSW 12:35:59 20° WNW 12:38:47 10° NNW
Cosmos 1666 Rocket 3.7 12:32:53 10° SSW 12:37:05 48° WNW 12:41:21 10° N
Cosmos 1140 Rocket 4.2 12:34:29 10° WSW 12:38:59 31° WNW 12:43:32 10° N
Cosmos 2369 Rocket 3.4 12:33:47 10° S 12:39:11 48° ESE 12:44:40 10° NE
Cosmos 1763 Rocket 3.5 12:34:37 10° NNW 12:39:36 59° WSW 12:44:34 10° S
Cosmos 2228 Rocket 3.1 12:35:30 10° NNW 12:39:49 59° W 12:44:06 10° S
Atlas Centaur 2 4.4 12:36:16 10° SW 12:40:56 23° S 12:46:19 10° SE
GRACE-FO 1 4.5 12:40:01 10° S 12:43:27 84° E 12:46:55 10° N
GRACE-FO 2 4.5 12:40:28 10° S 12:43:53 85° E 12:47:21 10° N
SJ-12 3.7 12:41:47 10° N 12:45:36 78° WNW 12:49:23 10° SSW
Okean 1-7 3.5 12:47:05 10° NNW 12:50:54 36° W 12:54:43 10° SSW
ARIANE 5 R/B 2.5 12:49:01 10° NNE 12:54:09 77° WNW 12:59:11 10° SSW
Lacrosse 5 rocket 3.1 12:51:46 10° NNW 12:54:24 18° NNE 12:57:01 10° ENE
Cosmos 44 4.5 12:49:50 10° NW 12:54:30 31° WSW 12:59:09 10° S
Cosmos 540 Rocket 3.7 12:49:57 10° NNW 12:54:52 50° WSW 12:59:45 10° S
SL-8 Rocket 4.1 12:52:29 10° SSW 12:58:40 56° WNW 13:04:51 10° N
Cosmos 332 Rocket 4.1 23:03:31 10° N 23:08:07 45° ENE 23:12:42 10° SE
Cosmos 2218 Rocket 4.2 23:02:30 10° N 23:08:46 53° ENE 23:14:58 10° SSE
Cosmos 1850 Rocket 4.5 23:04:01 10° N 23:09:00 39° ENE 23:13:58 10° SE
UNK 3.7 23:04:30 10° NNE 23:09:00 67° ESE 23:13:29 10° S
IGS 5A 4.3 23:06:37 10° S 23:10:30 53° W 23:14:24 10° NNW
Cosmos 676 Rocket 4.2 23:07:21 10° NNW 23:12:33 80° WSW 23:17:45 10° SSE
ATLAS 5 CENTAUR R/B 2.0 23:09:53 10° WSW 23:12:37 33° NW 23:15:32 10° NNE
YAOGAN 1 3.8 23:10:15 10° ESE 23:13:16 19° ENE 23:16:17 10° NNE
Thor Agena Rocket 3.5 23:08:43 10° SSE 23:13:44 82° ENE 23:18:47 10° NNW
Cosmos 1515 Rocket 4.1 23:09:58 10° SSE 23:14:04 39° E 23:18:11 10° NNE
Cosmos 2369 Rocket 3.7 23:09:38 10° NW 23:14:58 42° WSW 23:20:16 10° S
Cosmos 1110 Rocket 4.2 23:10:10 10° S 23:15:14 54° ESE 23:20:17 10° NNE
SPOT 1/Viking Rocket 4.0 23:11:15 10° SE 23:15:56 37° ENE 23:20:37 10° N
AQUARIUS 4.3 23:13:06 10° SSE 23:17:21 50° ENE 23:21:38 10° N
BREEZE-M DEB (TANK) 4.4 23:14:22 10° W 23:19:42 74° NNW 23:39:23 12° ENE
Landsat 7 3.7 23:15:23 10° SSE 23:20:01 83° ENE 23:24:42 10° NNW
Cosmos 1943 3.6 23:15:20 10° SW 23:20:55 66° WNW 23:26:35 10° NNE
USA 59 Rocket 1.7 23:20:27 10° NNE 23:21:23 11° NE 23:22:21 10° NE
IRS-1C 4.1 23:19:45 10° SSE 23:25:01 71° ENE 23:30:20 10° N
Cosmos 2341 Rocket 4.0 23:19:55 10° N 23:26:17 83° E 23:32:32 10° S
CZ-2D R/B 4.4 23:24:00 10° ESE 23:27:00 22° ENE 23:30:01 10° NNE
SMAP 3.4 23:22:44 10° S 23:27:22 73° WSW 23:32:03 10° NNW
MOS 1 Rocket 3.5 23:22:14 10° SSE 23:27:31 87° ENE 23:32:35 10° NNW
SJ-12 3.7 23:24:00 10° SSE 23:27:47 66° ENE 23:31:35 10° N
Cosmos 1452 Rocket 3.7 23:23:31 10° S 23:28:33 50° ESE 23:33:38 10° NNE
Cosmos 1959 Rocket 4.4 23:22:44 10° N 23:28:51 70° E 23:35:00 10° SSE
Cosmos 1953 2.0 23:27:41 10° N 23:31:25 79° E 23:35:06 10° SSE
Resurs 01 Rocket 3.2 23:30:18 10° E 23:32:41 15° ENE 23:35:05 10° NNE
Cosmos 1470 Rocket 3.6 23:32:28 10° N 23:36:49 86° W 23:41:09 10° S
NOSS 3-4 (A) 3.2 23:34:48 10° SW 23:40:03 84° NW 23:45:50 10° NE
NOSS 3-4 (C) 3.2 23:34:56 10° SW 23:40:12 85° NW 23:46:01 10° NE
ERS-1 4.4 23:39:25 10° SSE 23:44:22 88° ENE 23:49:24 10° NNW
Cosmos 1340 Rocket 3.1 23:40:57 10° N 23:44:32 38° ENE 23:48:08 10° SE
SL-16 R/B 4.3 23:40:39 10° W 23:44:46 20° NW 23:48:53 10° N
Cosmos 1933 Rocket 3.7 23:40:38 10° N 23:44:55 51° ENE 23:49:09 10° SSE
Meteor 2-15 4.4 23:42:14 10° N 23:48:22 69° E 23:54:25 10° SSE
Spot 4 Rocket 4.3 23:46:27 10° SE 23:51:17 44° ENE 23:56:08 10° N
